W0VI Weather Reports


time (UTC)temp
C
wind
direction
speed
KPH
gust
KPH
rain 1hr
cm
rain 24hr
cm
rain mn
cm
humidity
%
barometer
mb
20260906191437 26 81 3.2 3.2 0.00 0.00 0.00 75 1018.5
20260906185704 25 53 4.8 8.0 0.00 0.00 0.00 76 1018.5
20260906185203 25 53 4.8 8.0 0.00 0.00 0.00 76 1018.5
20260906184703 25 73 3.2 3.2 0.00 0.00 0.00 76 1018.5
20260906184159 25 112 1.6 1.6 0.00 0.00 0.00 77 1018.3
20260906183654 25 77 0.0 1.6 0.00 0.00 0.00 77 1018.4
20260906183151 25 114 3.2 3.2 0.00 0.00 0.00 76 1018.4
20260906182650 25 70 1.6 1.6 0.00 0.00 0.00 77 1018.5
20260906182146 25 10 0.0 0.0 0.00 0.00 0.00 78 1018.5
20260906181642 25 121 1.6 1.6 0.00 0.00 0.00 78 1018.6
20260906181138 25 197 3.2 4.8 0.00 0.00 0.00 78 1018.7
20260906180632 26 72 0.0 0.0 0.00 0.00 0.00 77 1018.9
20260906180127 26 307 3.2 3.2 0.00 0.00 0.00 77 1018.5
20260906175625 25 84 0.0 1.6 0.00 0.00 0.00 78 1018.5
20260906175121 25 204 0.0 1.6 0.00 0.00 0.00 78 1018.9
20260906174619 25 191 1.6 3.2 0.00 0.00 0.00 78 1018.7
20260906174114 25 190 4.8 4.8 0.00 0.00 0.00 78 1018.6
20260906173608 25 96 3.2 4.8 0.00 0.00 0.00 78 1018.7
20260906173104 25 119 1.6 3.2 0.00 0.00 0.00 77 1018.7
20260906172558 25 109 1.6 1.6 0.00 0.00 0.00 78 1018.7
20260906172054 26 19 1.6 1.6 0.00 0.00 0.00 77 1018.8
20260906171554 25 79 1.6 3.2 0.00 0.00 0.00 78 1018.9
20260906171049 25 196 1.6 3.2 0.00 0.00 0.00 77 1019.0
20260906170545 25 193 4.8 8.0 0.00 0.00 0.00 78 1019.0
20260906170044 24 330 1.6 1.6 0.00 0.00 0.00 81 1019.2
20260906165541 23 97 1.6 3.2 0.00 0.00 0.00 82 1019.1
20260906165036 24 80 1.6 4.8 0.00 0.00 0.00 81 1019.4
20260906164535 25 60 1.6 3.2 0.00 0.00 0.00 80 1019.1
20260906164031 25 97 4.8 4.8 0.00 0.00 0.00 78 1019.1
20260906163526 25 154 1.6 1.6 0.00 0.00 0.00 79 1019.0
20260906163022 25 114 1.6 3.2 0.00 0.00 0.00 77 1019.3
20260906162519 25 143 1.6 1.6 0.00 0.00 0.00 78 1019.4
20260906162014 25 298 3.2 3.2 0.00 0.00 0.00 78 1019.0
20260906161509 26 79 4.8 8.0 0.00 0.00 0.00 76 1019.2
20260906161007 26 169 4.8 8.0 0.00 0.00 0.00 76 1019.3
20260906160501 25 125 1.6 1.6 0.00 0.00 0.00 77 1019.0
20260906155959 25 102 1.6 3.2 0.00 0.00 0.00 79 1019.3
20260906155458 25 201 1.6 1.6 0.00 0.00 0.00 80 1019.3
20260906154954 25 29 1.6 1.6 0.00 0.00 0.00 80 1019.5
20260906154449 25 64 0.0 1.6 0.00 0.00 0.00 79 1019.5
20260906153947 25 54 3.2 3.2 0.00 0.00 0.00 79 1019.4
20260906153446 25 214 1.6 1.6 0.00 0.00 0.00 79 1019.1
20260906152941 25 310 3.2 3.2 0.00 0.00 0.00 79 1019.3
20260906152436 25 85 1.6 1.6 0.00 0.00 0.00 79 1019.4
20260906151935 25 138 4.8 4.8 0.00 0.00 0.00 79 1019.3
20260906151431 25 147 8.0 12.9 0.00 0.00 0.00 79 1019.4
20260906150926 25 237 6.4 11.3 0.00 0.00 0.00 79 1019.5
20260906150420 24 89 3.2 3.2 0.00 0.00 0.00 81 1019.3
20260906145914 25 3 0.0 1.6 0.00 0.00 0.00 81 1019.4
20260906145413 25 108 1.6 3.2 0.00 0.00 0.00 81 1019.3
20260906144908 24 69 0.0 1.6 0.00 0.00 0.00 82 1019.2
20260906144403 23 123 4.8 8.0 0.00 0.00 0.00 83 1019.2
20260906143859 23 37 4.8 8.0 0.00 0.00 0.00 83 1019.1
20260906143354 23 98 1.6 1.6 0.00 0.00 0.00 83 1019.0
20260906142850 24 82 3.2 4.8 0.00 0.00 0.00 81 1019.1
20260906142344 24 87 0.0 0.0 0.00 0.00 0.00 83 1019.2
20260906141844 23 90 0.0 1.6 0.00 0.00 0.00 83 1019.2
20260906141338 24 104 1.6 1.6 0.00 0.00 0.00 82 1019.3
20260906140838 23 74 0.0 0.0 0.00 0.00 0.00 83 1019.1
20260906140333 23 40 0.0 0.0 0.00 0.00 0.00 83 1019.5
20260906135831 23 166 3.2 4.8 0.00 0.00 0.00 82 1019.4
20260906135325 23 141 1.6 3.2 0.00 0.00 0.00 83 1019.1
20260906134821 23 257 1.6 1.6 0.00 0.00 0.00 85 1019.2
20260906134311 22 52 1.6 1.6 0.00 0.00 0.00 86 1019.2
20260906133806 22 106 3.2 3.2 0.00 0.00 0.00 86 1019.2
20260906133301 23 61 0.0 1.6 0.00 0.00 0.00 85 1019.2
20260906132757 23 80 3.2 3.2 0.00 0.00 0.00 85 1019.2
20260906132252 22 86 3.2 4.8 0.00 0.00 0.00 86 1019.1
20260906131747 22 69 0.0 1.6 0.00 0.00 0.00 88 1019.0
20260906131242 22 64 0.0 0.0 0.00 0.00 0.00 90 1018.9
20260906130737 21 75 1.6 1.6 0.00 0.00 0.00 91 1018.8
20260906130232 21 92 3.2 3.2 0.00 0.00 0.00 92 1018.8
20260906125731 21 98 1.6 1.6 0.00 0.00 0.00 94 1018.8
20260906125229 21 85 4.8 8.0 0.00 0.00 0.00 95 1019.0
20260906124724 21 66 0.0 0.0 0.00 0.00 0.00 96 1019.1
20260906124220 21 75 0.0 0.0 0.00 0.00 0.00 96 1018.9
20260906123719 21 71 0.0 0.0 0.00 0.00 0.00 97 1018.8
20260906123214 21 60 0.0 0.0 0.00 0.00 0.00 97 1019.0
20260906122713 21 62 0.0 0.0 0.00 0.00 0.00 97 1018.8
20260906122209 21 60 0.0 0.0 0.00 0.00 0.00 98 1019.0
20260906121705 20 73 0.0 0.0 0.00 0.00 0.00 98 1018.8
20260906121201 20 79 0.0 0.0 0.00 0.00 0.00 98 1019.0
20260906120657 20 81 0.0 0.0 0.00 0.00 0.00 98 1019.1
20260906120153 20 78 0.0 1.6 0.00 0.00 0.00 98 1018.8
20260906115648 20 76 1.6 1.6 0.00 0.00 0.00 98 1018.9
20260906115144 20 72 0.0 1.6 0.00 0.00 0.00 98 1018.5
20260906114643 20 83 0.0 0.0 0.00 0.00 0.00 98 1018.6
20260906114138 20 58 0.0 0.0 0.00 0.00 0.00 98 1018.4
20260906113637 20 66 0.0 0.0 0.00 0.00 0.00 97 1018.4
20260906113132 20 36 0.0 0.0 0.00 0.00 0.00 97 1018.4
20260906112631 20 87 0.0 0.0 0.00 0.00 0.00 97 1018.4
20260906112129 20 84 0.0 1.6 0.00 0.00 0.00 97 1018.6
20260906111628 20 96 3.2 3.2 0.00 0.00 0.00 97 1018.4
20260906111117 20 60 0.0 0.0 0.00 0.00 0.00 97 1018.5
20260906110611 20 110 0.0 1.6 0.00 0.00 0.00 97 1018.7
20260906110106 20 65 0.0 0.0 0.00 0.00 0.00 97 1018.3
20260906105601 20 52 0.0 0.0 0.00 0.00 0.00 97 1018.2
20260906105057 20 44 0.0 0.0 0.00 0.00 0.00 96 1018.2
20260906104556 21 96 1.6 1.6 0.00 0.00 0.00 96 1018.3
20260906104050 21 86 0.0 0.0 0.00 0.00 0.00 96 1018.1
20260906103548 21 90 0.0 1.6 0.00 0.00 0.00 96 1018.1
20260906103043 21 52 0.0 0.0 0.00 0.00 0.00 96 1018.2
20260906102537 21 66 0.0 0.0 0.00 0.00 0.00 95 1018.1
20260906102032 21 71 0.0 0.0 0.00 0.00 0.00 95 1018.2
20260906101527 21 56 0.0 0.0 0.00 0.00 0.00 95 1018.4
20260906101022 21 44 0.0 0.0 0.00 0.00 0.00 95 1018.3
20260906100518 21 65 0.0 0.0 0.00 0.00 0.00 95 1018.1
20260906100013 21 3 0.0 0.0 0.00 0.00 0.00 95 1018.2
20260906095507 21 33 0.0 0.0 0.00 0.00 0.00 95 1018.2
20260906095003 21 90 0.0 0.0 0.00 0.00 0.00 95 1018.1
20260906094501 21 55 0.0 0.0 0.00 0.00 0.00 95 1017.8
20260906093958 21 62 0.0 0.0 0.00 0.00 0.00 95 1017.7
20260906093454 21 231 6.4 8.0 0.00 0.00 0.00 96 1017.6
20260906092954 21 35 0.0 1.6 0.00 0.00 0.00 96 1017.5
20260906092453 21 59 3.2 4.8 0.00 0.00 0.00 96 1017.4
20260906091948 20 32 0.0 0.0 0.00 0.00 0.00 96 1017.4
20260906091444 21 39 0.0 0.0 0.00 0.00 0.00 95 1017.4
20260906090941 21 35 0.0 0.0 0.00 0.00 0.00 95 1017.4
20260906090436 21 26 0.0 0.0 0.00 0.00 0.00 95 1017.5
20260906085936 21 30 0.0 0.0 0.00 0.00 0.00 95 1017.6
20260906085435 21 34 0.0 0.0 0.00 0.00 0.00 95 1017.4
20260906084934 21 34 0.0 0.0 0.00 0.00 0.00 95 1017.7
20260906084429 21 35 0.0 0.0 0.00 0.00 0.00 95 1017.7
20260906083928 21 34 0.0 0.0 0.00 0.00 0.00 95 1017.6
20260906083424 21 35 0.0 0.0 0.00 0.00 0.00 95 1017.5
20260906082923 21 37 0.0 0.0 0.00 0.00 0.00 95 1017.4
20260906082419 21 31 0.0 0.0 0.00 0.00 0.00 94 1017.5
20260906081914 21 27 0.0 0.0 0.00 0.00 0.00 94 1017.5
20260906081409 21 30 0.0 0.0 0.00 0.00 0.00 94 1017.4
20260906080906 21 26 0.0 0.0 0.00 0.00 0.00 94 1017.5
20260906080402 21 26 0.0 0.0 0.00 0.00 0.00 93 1017.5
20260906075901 21 26 0.0 0.0 0.00 0.00 0.00 93 1017.3
20260906075356 21 37 0.0 1.6 0.00 0.00 0.00 93 1017.4
20260906074852 21 32 0.0 1.6 0.00 0.00 0.00 93 1017.4
20260906074345 21 22 0.0 0.0 0.00 0.00 0.00 92 1017.3
20260906073844 21 34 0.0 0.0 0.00 0.00 0.00 92 1017.6
20260906073340 22 37 0.0 0.0 0.00 0.00 0.00 92 1017.6
20260906072837 22 35 0.0 1.6 0.00 0.00 0.00 92 1017.2
20260906072331 22 39 0.0 0.0 0.00 0.00 0.00 92 1017.5
20260906071828 22 34 0.0 0.0 0.00 0.00 0.00 91 1017.4
20260906071327 22 34 0.0 0.0 0.00 0.00 0.00 91 1017.8
20260906070824 22 31 0.0 0.0 0.00 0.00 0.00 91 1017.8
20260906070320 22 35 0.0 0.0 0.00 0.00 0.00 90 1017.7
20260906065820 22 34 0.0 0.0 0.00 0.00 0.00 90 1017.7
20260906065315 22 35 0.0 0.0 0.00 0.00 0.00 89 1017.8
20260906064810 22 35 0.0 0.0 0.00 0.00 0.00 89 1017.9
20260906064306 22 46 1.6 1.6 0.00 0.00 0.00 89 1017.7
20260906063801 22 52 1.6 3.2 0.00 0.00 0.00 89 1017.8
20260906063256 22 35 0.0 0.0 0.00 0.00 0.00 89 1018.1
20260906062751 22 35 0.0 0.0 0.00 0.00 0.00 88 1017.9
20260906062251 22 35 0.0 0.0 0.00 0.00 0.00 88 1017.8
20260906061746 23 34 0.0 0.0 0.00 0.00 0.00 88 1018.0
20260906061243 23 45 1.6 3.2 0.00 0.00 0.00 88 1017.7
20260906060737 23 40 1.6 1.6 0.00 0.00 0.00 88 1017.9
20260906060235 23 33 0.0 0.0 0.00 0.00 0.00 88 1017.9
20260906055731 23 34 0.0 0.0 0.00 0.00 0.00 88 1017.7
20260906055226 23 33 0.0 0.0 0.00 0.00 0.00 88 1017.7
20260906054721 22 32 0.0 0.0 0.00 0.00 0.00 88 1017.6
20260906054216 22 36 1.6 1.6 0.00 0.00 0.00 89 1017.9
20260906053713 22 32 0.0 0.0 0.00 0.00 0.00 89 1017.8
20260906053208 22 27 0.0 0.0 0.00 0.00 0.00 88 1017.9
20260906052703 22 30 0.0 0.0 0.00 0.00 0.00 88 1017.8
20260906052159 22 28 0.0 0.0 0.00 0.00 0.00 89 1017.6
20260906051656 22 26 0.0 0.0 0.00 0.00 0.00 88 1017.6
20260906051155 22 29 1.6 1.6 0.00 0.00 0.00 88 1017.8
20260906050651 23 34 1.6 1.6 0.00 0.00 0.00 88 1017.8
20260906050146 23 27 0.0 0.0 0.00 0.00 0.00 87 1017.9
20260906045644 23 29 0.0 0.0 0.00 0.00 0.00 87 1017.8
20260906045140 23 28 0.0 0.0 0.00 0.00 0.00 88 1017.8
20260906044636 23 353 0.0 0.0 0.00 0.00 0.00 88 1018.0
20260906044131 23 348 0.0 0.0 0.00 0.00 0.00 89 1018.1
20260906043627 23 350 0.0 0.0 0.00 0.00 0.00 89 1018.1
20260906043122 23 351 0.0 0.0 0.00 0.00 0.00 88 1018.0
20260906042621 23 58 0.0 0.0 0.00 0.00 0.00 88 1017.9
20260906042115 23 55 0.0 0.0 0.00 0.00 0.00 88 1018.0
20260906041612 23 67 0.0 0.0 0.00 0.00 0.00 87 1018.1
20260906041106 23 59 0.0 0.0 0.00 0.00 0.00 87 1018.0
20260906040602 23 73 1.6 1.6 0.00 0.00 0.00 88 1018.3
20260906040057 23 50 0.0 0.0 0.00 0.00 0.00 87 1018.3
20260906035552 23 54 0.0 0.0 0.00 0.00 0.00 87 1018.2
20260906035048 23 86 0.0 0.0 0.00 0.00 0.00 86 1018.1
20260906034548 23 79 1.6 1.6 0.00 0.00 0.00 85 1018.0
20260906034043 23 84 0.0 0.0 0.00 0.00 0.00 85 1018.1
20260906033538 23 93 1.6 1.6 0.00 0.00 0.00 85 1018.2
20260906033033 23 93 3.2 3.2 0.00 0.00 0.00 84 1018.2
20260906032530 24 64 0.0 0.0 0.00 0.00 0.00 84 1018.2
20260906032030 24 76 0.0 0.0 0.00 0.00 0.00 84 1018.3
20260906031526 24 57 0.0 0.0 0.00 0.00 0.00 84 1018.2
20260906031021 24 60 1.6 1.6 0.00 0.00 0.00 84 1018.2
20260906030520 24 47 0.0 0.0 0.00 0.00 0.00 83 1018.4
20260906030020 25 65 0.0 0.0 0.00 0.00 0.00 82 1018.3
20260906025520 25 79 0.0 1.6 0.00 0.00 0.00 82 1018.1
20260906025018 25 67 0.0 0.0 0.00 0.00 0.00 81 1018.0
20260906024513 25 65 0.0 0.0 0.00 0.00 0.00 81 1018.3
20260906024008 25 213 0.0 0.0 0.00 0.00 0.00 81 1018.3
20260906023504 25 307 1.6 1.6 0.00 0.00 0.00 81 1018.1
20260906022959 25 69 0.0 0.0 0.00 0.00 0.00 81 1018.4
20260906022454 25 51 0.0 0.0 0.00 0.00 0.00 81 1018.0
20260906021949 25 51 0.0 1.6 0.00 0.00 0.00 80 1017.7
20260906021444 25 319 0.0 1.6 0.00 0.00 0.00 80 1017.7
20260906020944 25 52 0.0 1.6 0.00 0.00 0.00 80 1017.8
20260906020439 25 72 0.0 0.0 0.00 0.00 0.00 79 1017.5
20260906015932 25 140 1.6 1.6 0.00 0.00 0.00 79 1017.3
20260906015426 25 78 0.0 0.0 0.00 0.00 0.00 76 1017.2
20260906014920 25 55 0.0 1.6 0.00 0.00 0.00 75 1017.2
20260906014420 25 82 1.6 1.6 0.00 0.00 0.00 75 1016.7
20260906013917 25 63 0.0 1.6 0.00 0.00 0.00 75 1016.6
20260906013412 25 72 3.2 3.2 0.00 0.00 0.00 75 1016.3
20260906012908 25 80 1.6 1.6 0.00 0.00 0.00 74 1016.2
20260906012408 25 60 1.6 1.6 0.00 0.00 0.00 74 1016.3
20260906011907 26 77 1.6 1.6 0.00 0.00 0.00 74 1016.1
20260906011402 26 99 1.6 3.2 0.00 0.00 0.00 74 1016.0
20260906010858 26 73 1.6 1.6 0.00 0.00 0.00 73 1015.7
20260906010353 26 76 3.2 4.8 0.00 0.00 0.00 73 1015.6
20260906005849 26 75 1.6 1.6 0.00 0.00 0.00 73 1015.7
20260906005348 26 71 1.6 1.6 0.00 0.00 0.00 72 1016.0
20260906004847 26 105 3.2 3.2 0.00 0.00 0.00 72 1015.6
20260906004347 26 94 3.2 3.2 0.00 0.00 0.00 71 1015.7
20260906003842 26 85 1.6 1.6 0.00 0.00 0.00 70 1015.6
20260906003338 26 79 1.6 3.2 0.00 0.00 0.00 70 1015.4
20260906002833 27 65 0.0 1.6 0.00 0.00 0.00 69 1015.3
20260906002332 27 58 3.2 4.8 0.00 0.00 0.00 68 1015.3
20260906001828 27 96 9.7 11.3 0.00 0.00 0.00 68 1015.1
20260906001323 27 101 3.2 4.8 0.00 0.00 0.00 67 1015.1
20260906000818 27 30 3.2 3.2 0.00 0.00 0.00 66 1015.1
20260906000313 27 128 3.2 4.8 0.00 0.00 0.00 66 1015.3
20260905235808 27 89 4.8 4.8 0.00 0.00 0.00 66 1015.2
20260905235306 27 92 4.8 4.8 0.00 0.00 0.00 66 1015.4
20260905234759 28 118 4.8 8.0 0.00 0.00 0.00 65 1015.7
20260905234253 28 61 1.6 1.6 0.00 0.00 0.00 65 1015.7
20260905233749 28 344 4.8 4.8 0.00 0.00 0.00 65 1015.6
20260905233248 28 54 3.2 4.8 0.00 0.00 0.00 65 1015.4
20260905232748 28 95 11.3 12.9 0.00 0.00 0.00 65 1015.2
20260905232244 28 59 1.6 1.6 0.00 0.00 0.00 64 1015.5
20260905231739 28 75 1.6 3.2 0.00 0.00 0.00 65 1015.2
20260905231234 28 35 0.0 0.0 0.00 0.00 0.00 65 1015.1
20260905230731 28 333 1.6 3.2 0.00 0.00 0.00 64 1015.2
20260905230228 28 37 1.6 3.2 0.00 0.00 0.00 65 1015.1
20260905225727 28 59 0.0 1.6 0.00 0.00 0.00 65 1015.1
20260905225223 28 92 3.2 3.2 0.00 0.00 0.00 65 1015.0
20260905224722 28 80 11.3 16.1 0.00 0.00 0.00 64 1015.0
20260905224217 28 18 3.2 8.0 0.00 0.00 0.00 64 1015.1
20260905223714 28 86 1.6 3.2 0.00 0.00 0.00 64 1015.0
20260905223210 29 120 4.8 8.0 0.00 0.00 0.00 64 1014.9
20260905222705 29 70 6.4 14.5 0.00 0.00 0.00 63 1015.0
20260905222205 29 83 3.2 3.2 0.00 0.00 0.00 63 1014.8
20260905221701 29 73 1.6 3.2 0.00 0.00 0.00 63 1014.8
20260905221157 29 78 4.8 8.0 0.00 0.00 0.00 62 1015.2
20260905220653 29 79 4.8 4.8 0.00 0.00 0.00 63 1015.0
20260905220149 29 62 1.6 3.2 0.00 0.00 0.00 62 1015.2
20260905215648 29 46 3.2 3.2 0.00 0.00 0.00 62 1015.3
20260905215144 29 104 3.2 4.8 0.00 0.00 0.00 62 1015.1
20260905214640 29 76 1.6 1.6 0.00 0.00 0.00 62 1015.2
20260905214135 29 16 3.2 4.8 0.00 0.00 0.00 62 1015.4
20260905213630 29 88 0.0 1.6 0.00 0.00 0.00 63 1015.3
20260905213125 28 77 8.0 9.7 0.00 0.00 0.00 64 1015.2
20260905212620 28 48 3.2 4.8 0.00 0.00 0.00 65 1014.9
20260905212120 28 73 4.8 4.8 0.00 0.00 0.00 63 1015.1
20260905211615 29 81 3.2 3.2 0.00 0.00 0.00 64 1015.2
20260905211110 28 6 1.6 3.2 0.00 0.00 0.00 65 1015.4
20260905210607 28 62 1.6 1.6 0.00 0.00 0.00 67 1015.5
20260905205601 28 326 4.8 4.8 0.00 0.00 0.00 66 1016.0
20260905205054 28 65 4.8 4.8 0.00 0.00 0.00 66 1016.0
20260905204550 28 98 8.0 11.3 0.00 0.00 0.00 66 1015.9
20260905204045 28 46 8.0 11.3 0.00 0.00 0.00 67 1016.2
20260905203544 28 146 3.2 3.2 0.00 0.00 0.00 68 1016.2
20260905203040 28 95 4.8 4.8 0.00 0.00 0.00 67 1016.1
20260905202535 28 330 1.6 3.2 0.00 0.00 0.00 67 1016.1
20260905202030 28 89 3.2 4.8 0.00 0.00 0.00 69 1016.3
20260905201526 28 69 6.4 11.3 0.00 0.00 0.00 68 1016.7
20260905201025 28 49 1.6 3.2 0.00 0.00 0.00 69 1016.6
20260905200521 28 64 3.2 3.2 0.00 0.00 0.00 68 1016.9
20260905200020 28 114 3.2 3.2 0.00 0.00 0.00 69 1017.0
20260905195515 27 38 3.2 4.8 0.00 0.00 0.00 70 1017.0
20260905195010 28 346 3.2 3.2 0.00 0.00 0.00 70 1017.0
20260905194510 27 41 6.4 11.3 0.00 0.00 0.00 71 1017.0
20260905194010 27 57 1.6 3.2 0.00 0.00 0.00 72 1017.2
20260905193510 28 33 1.6 3.2 0.00 0.00 0.00 71 1017.4
20260905193005 27 98 1.6 3.2 0.00 0.00 0.00 71 1017.4
20260905192500 28 127 1.6 3.2 0.00 0.00 0.00 70 1017.4
20260905191956 27 6 1.6 1.6 0.00 0.00 0.00 72 1017.4